owner,sensor,date,latitude,longitude,vertical_datum,sea_water_temperature,qcFlag
LLOG,ioos:station:wmo:42940:1,2022-08-01T00:04:00Z,28.0786,-89.9817,10.0,57.0,11144222
LLOG,ioos:station:wmo:42940:1,2022-08-01T00:14:00Z,28.0786,-89.9817,10.0,56.6,11144222
LLOG,ioos:station:wmo:42940:1,2022-08-01T00:24:00Z,28.0786,-89.9817,10.0,56.9,11144222
LLOG,ioos:station:wmo:42940:1,2022-08-01T00:34:00Z,28.0786,-89.9817,10.0,55.8,11144222
LLOG,ioos:station:wmo:42940:1,2022-08-01T00:44:00Z,28.0786,-89.9817,10.0,55.3,11144222
LLOG,ioos:station:wmo:42940:1,2022-08-01T00:54:00Z,28.0786,-89.9817,10.0,54.6,11144222
LLOG,ioos:station:wmo:42940:1,2022-08-01T01:04:00Z,28.0786,-89.9817,10.0,55.3,11144222
LLOG,ioos:station:wmo:42940:1,2022-08-01T01:14:00Z,28.0786,-89.9817,10.0,50.8,11144222
LLOG,ioos:station:wmo:42940:1,2022-08-01T01:24:00Z,28.0786,-89.9817,10.0,54.6,11144222
LLOG,ioos:station:wmo:42940:1,2022-08-01T01:34:00Z,28.0786,-89.9817,10.0,51.2,11144222
LLOG,ioos:station:wmo:42940:1,2022-08-01T01:44:00Z,28.0786,-89.9817,10.0,50.8,11144222
LLOG,ioos:station:wmo:42940:1,2022-08-01T01:54:00Z,28.0786,-89.9817,10.0,50.9,11144222
LLOG,ioos:station:wmo:42940:1,2022-08-01T02:04:00Z,28.0786,-89.9817,10.0,50.1,11144222
LLOG,ioos:station:wmo:42940:1,2022-08-01T02:14:00Z,28.0786,-89.9817,10.0,51.1,11144222
LLOG,ioos:station:wmo:42940:1,2022-08-01T02:24:00Z,28.0786,-89.9817,10.0,51.3,11144222
LLOG,ioos:station:wmo:42940:1,2022-08-01T02:34:00Z,28.0786,-89.9817,10.0,51.5,11144222
LLOG,ioos:station:wmo:42940:1,2022-08-01T02:44:00Z,28.0786,-89.9817,10.0,51.1,11144222
LLOG,ioos:station:wmo:42940:1,2022-08-01T02:54:00Z,28.0786,-89.9817,10.0,50.9,11144222
LLOG,ioos:station:wmo:42940:1,2022-08-01T03:04:00Z,28.0786,-89.9817,10.0,51.1,11144222
LLOG,ioos:station:wmo:42940:1,2022-08-01T03:14:00Z,28.0786,-89.9817,10.0,51.4,11144222
LLOG,ioos:station:wmo:42940:1,2022-08-01T03:24:00Z,28.0786,-89.9817,10.0,51.7,11144222
LLOG,ioos:station:wmo:42940:1,2022-08-01T03:34:00Z,28.0786,-89.9817,10.0,50.5,11144222
LLOG,ioos:station:wmo:42940:1,2022-08-01T03:44:00Z,28.0786,-89.9817,10.0,48.6,11144222
LLOG,ioos:station:wmo:42940:1,2022-08-01T03:54:00Z,28.0786,-89.9817,10.0,49.8,11144222
LLOG,ioos:station:wmo:42940:1,2022-08-01T04:04:00Z,28.0786,-89.9817,10.0,48.5,11144222
LLOG,ioos:station:wmo:42940:1,2022-08-01T04:14:00Z,28.0786,-89.9817,10.0,50.3,11144222
LLOG,ioos:station:wmo:42940:1,2022-08-01T04:24:00Z,28.0786,-89.9817,10.0,50.5,11144222
LLOG,ioos:station:wmo:42940:1,2022-08-01T04:34:00Z,28.0786,-89.9817,10.0,45.0,11144222
LLOG,ioos:station:wmo:42940:1,2022-08-01T04:44:00Z,28.0786,-89.9817,10.0,45.6,11144222
LLOG,ioos:station:wmo:42940:1,2022-08-01T04:54:00Z,28.0786,-89.9817,10.0,45.5,11144222
LLOG,ioos:station:wmo:42940:1,2022-08-01T05:04:00Z,28.0786,-89.9817,10.0,51.4,11144222
LLOG,ioos:station:wmo:42940:1,2022-08-01T05:14:00Z,28.0786,-89.9817,10.0,55.0,11144222
LLOG,ioos:station:wmo:42940:1,2022-08-01T05:24:00Z,28.0786,-89.9817,10.0,54.4,11144222
LLOG,ioos:station:wmo:42940:1,2022-08-01T05:34:00Z,28.0786,-89.9817,10.0,51.9,11144222
LLOG,ioos:station:wmo:42940:1,2022-08-01T05:44:00Z,28.0786,-89.9817,10.0,52.0,11144222
LLOG,ioos:station:wmo:42940:1,2022-08-01T05:54:00Z,28.0786,-89.9817,10.0,54.1,11144222
LLOG,ioos:station:wmo:42940:1,2022-08-01T06:04:00Z,28.0786,-89.9817,10.0,53.0,11144222
LLOG,ioos:station:wmo:42940:1,2022-08-01T06:14:00Z,28.0786,-89.9817,10.0,53.7,11144222
LLOG,ioos:station:wmo:42940:1,2022-08-01T06:24:00Z,28.0786,-89.9817,10.0,52.0,11144222
LLOG,ioos:station:wmo:42940:1,2022-08-01T06:34:00Z,28.0786,-89.9817,10.0,58.4,11144222
LLOG,ioos:station:wmo:42940:1,2022-08-01T06:44:00Z,28.0786,-89.9817,10.0,58.6,11144222
LLOG,ioos:station:wmo:42940:1,2022-08-01T06:54:00Z,28.0786,-89.9817,10.0,53.6,11144222
LLOG,ioos:station:wmo:42940:1,2022-08-01T07:04:00Z,28.0786,-89.9817,10.0,53.6,11144222
LLOG,ioos:station:wmo:42940:1,2022-08-01T07:14:00Z,28.0786,-89.9817,10.0,53.6,11144222
LLOG,ioos:station:wmo:42940:1,2022-08-01T07:24:00Z,28.0786,-89.9817,10.0,51.1,11144222
LLOG,ioos:station:wmo:42940:1,2022-08-01T07:34:00Z,28.0786,-89.9817,10.0,50.8,11144222
LLOG,ioos:station:wmo:42940:1,2022-08-01T07:44:00Z,28.0786,-89.9817,10.0,51.0,11144222
LLOG,ioos:station:wmo:42940:1,2022-08-01T07:54:00Z,28.0786,-89.9817,10.0,50.8,11144222
LLOG,ioos:station:wmo:42940:1,2022-08-01T08:04:00Z,28.0786,-89.9817,10.0,51.2,11144222
LLOG,ioos:station:wmo:42940:1,2022-08-01T08:14:00Z,28.0786,-89.9817,10.0,51.2,11144222
LLOG,ioos:station:wmo:42940:1,2022-08-01T08:24:00Z,28.0786,-89.9817,10.0,51.8,11144222
LLOG,ioos:station:wmo:42940:1,2022-08-01T08:34:00Z,28.0786,-89.9817,10.0,51.5,11144222
LLOG,ioos:station:wmo:42940:1,2022-08-01T08:44:00Z,28.0786,-89.9817,10.0,51.5,11144222
LLOG,ioos:station:wmo:42940:1,2022-08-01T08:54:00Z,28.0786,-89.9817,10.0,51.9,11144222
LLOG,ioos:station:wmo:42940:1,2022-08-01T09:04:00Z,28.0786,-89.9817,10.0,51.8,11144222
LLOG,ioos:station:wmo:42940:1,2022-08-01T09:14:00Z,28.0786,-89.9817,10.0,51.8,11144222
LLOG,ioos:station:wmo:42940:1,2022-08-01T09:24:00Z,28.0786,-89.9817,10.0,52.1,11144222
LLOG,ioos:station:wmo:42940:1,2022-08-01T09:34:00Z,28.0786,-89.9817,10.0,51.3,11144222
LLOG,ioos:station:wmo:42940:1,2022-08-01T09:44:00Z,28.0786,-89.9817,10.0,51.5,11144222
LLOG,ioos:station:wmo:42940:1,2022-08-01T09:54:00Z,28.0786,-89.9817,10.0,51.6,11144222
LLOG,ioos:station:wmo:42940:1,2022-08-01T10:04:00Z,28.0786,-89.9817,10.0,51.5,11144222
LLOG,ioos:station:wmo:42940:1,2022-08-01T10:14:00Z,28.0786,-89.9817,10.0,51.7,11144222
LLOG,ioos:station:wmo:42940:1,2022-08-01T10:24:00Z,28.0786,-89.9817,10.0,51.5,11144222
LLOG,ioos:station:wmo:42940:1,2022-08-01T10:34:00Z,28.0786,-89.9817,10.0,51.9,11144222
LLOG,ioos:station:wmo:42940:1,2022-08-01T10:44:00Z,28.0786,-89.9817,10.0,52.1,11144222
LLOG,ioos:station:wmo:42940:1,2022-08-01T10:54:00Z,28.0786,-89.9817,10.0,51.8,11144222
LLOG,ioos:station:wmo:42940:1,2022-08-01T11:04:00Z,28.0786,-89.9817,10.0,51.1,11144222
LLOG,ioos:station:wmo:42940:1,2022-08-01T11:14:00Z,28.0786,-89.9817,10.0,51.1,11144222
LLOG,ioos:station:wmo:42940:1,2022-08-01T11:24:00Z,28.0786,-89.9817,10.0,51.1,11144222
LLOG,ioos:station:wmo:42940:1,2022-08-01T11:34:00Z,28.0786,-89.9817,10.0,51.0,11144222
LLOG,ioos:station:wmo:42940:1,2022-08-01T11:44:00Z,28.0786,-89.9817,10.0,51.2,11144222
LLOG,ioos:station:wmo:42940:1,2022-08-01T11:54:00Z,28.0786,-89.9817,10.0,50.9,11144222
LLOG,ioos:station:wmo:42940:1,2022-08-01T12:04:00Z,28.0786,-89.9817,10.0,51.2,11144222
LLOG,ioos:station:wmo:42940:1,2022-08-01T12:14:00Z,28.0786,-89.9817,10.0,51.1,11144222
LLOG,ioos:station:wmo:42940:1,2022-08-01T12:24:00Z,28.0786,-89.9817,10.0,51.0,11144222
LLOG,ioos:station:wmo:42940:1,2022-08-01T12:34:00Z,28.0786,-89.9817,10.0,48.3,11144222
LLOG,ioos:station:wmo:42940:1,2022-08-01T12:44:00Z,28.0786,-89.9817,10.0,48.4,11144222
LLOG,ioos:station:wmo:42940:1,2022-08-01T12:54:00Z,28.0786,-89.9817,10.0,48.5,11144222
LLOG,ioos:station:wmo:42940:1,2022-08-01T13:04:00Z,28.0786,-89.9817,10.0,50.3,11144222
LLOG,ioos:station:wmo:42940:1,2022-08-01T13:14:00Z,28.0786,-89.9817,10.0,50.4,11144222
LLOG,ioos:station:wmo:42940:1,2022-08-01T13:24:00Z,28.0786,-89.9817,10.0,50.2,11144222
LLOG,ioos:station:wmo:42940:1,2022-08-01T13:34:00Z,28.0786,-89.9817,10.0,50.3,11144222
LLOG,ioos:station:wmo:42940:1,2022-08-01T13:44:00Z,28.0786,-89.9817,10.0,50.2,11144222
LLOG,ioos:station:wmo:42940:1,2022-08-01T13:54:00Z,28.0786,-89.9817,10.0,52.4,11144222
LLOG,ioos:station:wmo:42940:1,2022-08-01T14:04:00Z,28.0786,-89.9817,10.0,52.0,11144222
LLOG,ioos:station:wmo:42940:1,2022-08-01T14:14:00Z,28.0786,-89.9817,10.0,50.3,11144222
LLOG,ioos:station:wmo:42940:1,2022-08-01T14:24:00Z,28.0786,-89.9817,10.0,52.4,11144222
LLOG,ioos:station:wmo:42940:1,2022-08-01T14:34:00Z,28.0786,-89.9817,10.0,51.1,11144222
LLOG,ioos:station:wmo:42940:1,2022-08-01T14:44:00Z,28.0786,-89.9817,10.0,51.9,11144222
LLOG,ioos:station:wmo:42940:1,2022-08-01T14:54:00Z,28.0786,-89.9817,10.0,51.7,11144222
LLOG,ioos:station:wmo:42940:1,2022-08-01T15:04:00Z,28.0786,-89.9817,10.0,52.4,11144222
LLOG,ioos:station:wmo:42940:1,2022-08-01T15:14:00Z,28.0786,-89.9817,10.0,52.4,11144222
LLOG,ioos:station:wmo:42940:1,2022-08-01T15:24:00Z,28.0786,-89.9817,10.0,52.2,11144222
LLOG,ioos:station:wmo:42940:1,2022-08-01T15:34:00Z,28.0786,-89.9817,10.0,51.9,11144222
LLOG,ioos:station:wmo:42940:1,2022-08-01T15:44:00Z,28.0786,-89.9817,10.0,52.8,11144222
LLOG,ioos:station:wmo:42940:1,2022-08-01T15:54:00Z,28.0786,-89.9817,10.0,53.2,11144222
LLOG,ioos:station:wmo:42940:1,2022-08-01T16:04:00Z,28.0786,-89.9817,10.0,52.7,11144222
LLOG,ioos:station:wmo:42940:1,2022-08-01T16:14:00Z,28.0786,-89.9817,10.0,51.6,11144222
LLOG,ioos:station:wmo:42940:1,2022-08-01T16:24:00Z,28.0786,-89.9817,10.0,52.5,11144222
LLOG,ioos:station:wmo:42940:1,2022-08-01T16:34:00Z,28.0786,-89.9817,10.0,52.5,11144222
LLOG,ioos:station:wmo:42940:1,2022-08-01T16:44:00Z,28.0786,-89.9817,10.0,53.6,11144222
LLOG,ioos:station:wmo:42940:1,2022-08-01T16:54:00Z,28.0786,-89.9817,10.0,53.5,11144222
LLOG,ioos:station:wmo:42940:1,2022-08-01T17:04:00Z,28.0786,-89.9817,10.0,52.5,11144222
LLOG,ioos:station:wmo:42940:1,2022-08-01T17:14:00Z,28.0786,-89.9817,10.0,49.9,11144222
LLOG,ioos:station:wmo:42940:1,2022-08-01T17:24:00Z,28.0786,-89.9817,10.0,50.1,11144222
LLOG,ioos:station:wmo:42940:1,2022-08-01T17:34:00Z,28.0786,-89.9817,10.0,51.2,11144222
LLOG,ioos:station:wmo:42940:1,2022-08-01T17:44:00Z,28.0786,-89.9817,10.0,52.0,11144222
LLOG,ioos:station:wmo:42940:1,2022-08-01T17:54:00Z,28.0786,-89.9817,10.0,50.2,11144222
LLOG,ioos:station:wmo:42940:1,2022-08-01T18:04:00Z,28.0786,-89.9817,10.0,50.4,11144222
LLOG,ioos:station:wmo:42940:1,2022-08-01T18:14:00Z,28.0786,-89.9817,10.0,48.9,11144222
LLOG,ioos:station:wmo:42940:1,2022-08-01T18:24:00Z,28.0786,-89.9817,10.0,54.6,11144222
LLOG,ioos:station:wmo:42940:1,2022-08-01T18:34:00Z,28.0786,-89.9817,10.0,56.9,11144222
LLOG,ioos:station:wmo:42940:1,2022-08-01T18:44:00Z,28.0786,-89.9817,10.0,56.7,11144222
LLOG,ioos:station:wmo:42940:1,2022-08-01T18:54:00Z,28.0786,-89.9817,10.0,56.7,11144222
LLOG,ioos:station:wmo:42940:1,2022-08-01T19:04:00Z,28.0786,-89.9817,10.0,56.6,11144222
LLOG,ioos:station:wmo:42940:1,2022-08-01T19:14:00Z,28.0786,-89.9817,10.0,56.5,11144222
LLOG,ioos:station:wmo:42940:1,2022-08-01T19:24:00Z,28.0786,-89.9817,10.0,56.8,11144222
LLOG,ioos:station:wmo:42940:1,2022-08-01T19:34:00Z,28.0786,-89.9817,10.0,56.6,11144222
LLOG,ioos:station:wmo:42940:1,2022-08-01T19:44:00Z,28.0786,-89.9817,10.0,56.8,11144222
LLOG,ioos:station:wmo:42940:1,2022-08-01T19:54:00Z,28.0786,-89.9817,10.0,56.5,11144222
LLOG,ioos:station:wmo:42940:1,2022-08-01T20:04:00Z,28.0786,-89.9817,10.0,54.9,11144222
LLOG,ioos:station:wmo:42940:1,2022-08-01T20:14:00Z,28.0786,-89.9817,10.0,54.9,11144222
LLOG,ioos:station:wmo:42940:1,2022-08-01T20:24:00Z,28.0786,-89.9817,10.0,55.0,11144222
LLOG,ioos:station:wmo:42940:1,2022-08-01T20:34:00Z,28.0786,-89.9817,10.0,55.1,11144222
LLOG,ioos:station:wmo:42940:1,2022-08-01T20:44:00Z,28.0786,-89.9817,10.0,55.3,11144222
LLOG,ioos:station:wmo:42940:1,2022-08-01T20:54:00Z,28.0786,-89.9817,10.0,54.8,11144222
LLOG,ioos:station:wmo:42940:1,2022-08-01T21:04:00Z,28.0786,-89.9817,10.0,54.9,11144222
LLOG,ioos:station:wmo:42940:1,2022-08-01T21:14:00Z,28.0786,-89.9817,10.0,55.0,11144222
LLOG,ioos:station:wmo:42940:1,2022-08-01T21:24:00Z,28.0786,-89.9817,10.0,55.2,11144222
LLOG,ioos:station:wmo:42940:1,2022-08-01T21:34:00Z,28.0786,-89.9817,10.0,55.0,11144222
LLOG,ioos:station:wmo:42940:1,2022-08-01T21:44:00Z,28.0786,-89.9817,10.0,55.0,11144222
LLOG,ioos:station:wmo:42940:1,2022-08-01T21:54:00Z,28.0786,-89.9817,10.0,55.0,11144222
LLOG,ioos:station:wmo:42940:1,2022-08-01T22:04:00Z,28.0786,-89.9817,10.0,55.1,11144222
LLOG,ioos:station:wmo:42940:1,2022-08-01T22:14:00Z,28.0786,-89.9817,10.0,55.0,11144222
LLOG,ioos:station:wmo:42940:1,2022-08-01T22:24:00Z,28.0786,-89.9817,10.0,56.9,11144222
LLOG,ioos:station:wmo:42940:1,2022-08-01T22:34:00Z,28.0786,-89.9817,10.0,56.9,11144222
LLOG,ioos:station:wmo:42940:1,2022-08-01T22:44:00Z,28.0786,-89.9817,10.0,57.0,11144222
LLOG,ioos:station:wmo:42940:1,2022-08-01T22:54:00Z,28.0786,-89.9817,10.0,56.6,11144222
LLOG,ioos:station:wmo:42940:1,2022-08-01T23:04:00Z,28.0786,-89.9817,10.0,56.5,11144222
LLOG,ioos:station:wmo:42940:1,2022-08-01T23:14:00Z,28.0786,-89.9817,10.0,56.9,11144222
LLOG,ioos:station:wmo:42940:1,2022-08-01T23:24:00Z,28.0786,-89.9817,10.0,56.6,11144222
LLOG,ioos:station:wmo:42940:1,2022-08-01T23:34:00Z,28.0786,-89.9817,10.0,56.3,11144222
LLOG,ioos:station:wmo:42940:1,2022-08-01T23:44:00Z,28.0786,-89.9817,10.0,56.9,11144222
LLOG,ioos:station:wmo:42940:1,2022-08-01T23:54:00Z,28.0786,-89.9817,10.0,56.6,11144222
LLOG,ioos:station:wmo:42940:1,2022-08-02T00:04:00Z,28.0786,-89.9817,10.0,55.9,11144222
LLOG,ioos:station:wmo:42940:1,2022-08-02T00:14:00Z,28.0786,-89.9817,10.0,55.9,11144222
LLOG,ioos:station:wmo:42940:1,2022-08-02T00:24:00Z,28.0786,-89.9817,10.0,56.1,11144222
LLOG,ioos:station:wmo:42940:1,2022-08-02T00:34:00Z,28.0786,-89.9817,10.0,55.9,11144222
LLOG,ioos:station:wmo:42940:1,2022-08-02T00:44:00Z,28.0786,-89.9817,10.0,55.8,11144222
LLOG,ioos:station:wmo:42940:1,2022-08-02T00:54:00Z,28.0786,-89.9817,10.0,56.1,11144222
LLOG,ioos:station:wmo:42940:1,2022-08-02T01:04:00Z,28.0786,-89.9817,10.0,56.2,11144222
LLOG,ioos:station:wmo:42940:1,2022-08-02T01:14:00Z,28.0786,-89.9817,10.0,55.7,11144222
LLOG,ioos:station:wmo:42940:1,2022-08-02T01:24:00Z,28.0786,-89.9817,10.0,55.6,11144222
LLOG,ioos:station:wmo:42940:1,2022-08-02T01:34:00Z,28.0786,-89.9817,10.0,55.5,11144222
LLOG,ioos:station:wmo:42940:1,2022-08-02T01:44:00Z,28.0786,-89.9817,10.0,55.7,11144222
LLOG,ioos:station:wmo:42940:1,2022-08-02T01:54:00Z,28.0786,-89.9817,10.0,53.1,11144222
LLOG,ioos:station:wmo:42940:1,2022-08-02T02:04:00Z,28.0786,-89.9817,10.0,52.4,11144222
LLOG,ioos:station:wmo:42940:1,2022-08-02T02:14:00Z,28.0786,-89.9817,10.0,55.5,11144222
LLOG,ioos:station:wmo:42940:1,2022-08-02T02:24:00Z,28.0786,-89.9817,10.0,55.5,11144222
LLOG,ioos:station:wmo:42940:1,2022-08-02T02:34:00Z,28.0786,-89.9817,10.0,55.3,11144222
LLOG,ioos:station:wmo:42940:1,2022-08-02T02:44:00Z,28.0786,-89.9817,10.0,55.3,11144222
LLOG,ioos:station:wmo:42940:1,2022-08-02T02:54:00Z,28.0786,-89.9817,10.0,54.7,11144222
LLOG,ioos:station:wmo:42940:1,2022-08-02T03:04:00Z,28.0786,-89.9817,10.0,54.8,11144222
LLOG,ioos:station:wmo:42940:1,2022-08-02T03:14:00Z,28.0786,-89.9817,10.0,54.6,11144222
LLOG,ioos:station:wmo:42940:1,2022-08-02T03:24:00Z,28.0786,-89.9817,10.0,54.9,11144222
LLOG,ioos:station:wmo:42940:1,2022-08-02T03:34:00Z,28.0786,-89.9817,10.0,54.9,11144222
LLOG,ioos:station:wmo:42940:1,2022-08-02T03:44:00Z,28.0786,-89.9817,10.0,54.3,11144222
LLOG,ioos:station:wmo:42940:1,2022-08-02T03:54:00Z,28.0786,-89.9817,10.0,53.1,11144222
LLOG,ioos:station:wmo:42940:1,2022-08-02T04:04:00Z,28.0786,-89.9817,10.0,51.5,11144222
LLOG,ioos:station:wmo:42940:1,2022-08-02T04:14:00Z,28.0786,-89.9817,10.0,52.4,11144222
LLOG,ioos:station:wmo:42940:1,2022-08-02T04:24:00Z,28.0786,-89.9817,10.0,52.9,11144222
LLOG,ioos:station:wmo:42940:1,2022-08-02T04:34:00Z,28.0786,-89.9817,10.0,53.1,11144222
LLOG,ioos:station:wmo:42940:1,2022-08-02T04:44:00Z,28.0786,-89.9817,10.0,53.0,11144222
LLOG,ioos:station:wmo:42940:1,2022-08-02T04:54:00Z,28.0786,-89.9817,10.0,53.1,11144222
LLOG,ioos:station:wmo:42940:1,2022-08-02T05:04:00Z,28.0786,-89.9817,10.0,53.3,11144222
LLOG,ioos:station:wmo:42940:1,2022-08-02T05:14:00Z,28.0786,-89.9817,10.0,52.3,11144222
LLOG,ioos:station:wmo:42940:1,2022-08-02T05:24:00Z,28.0786,-89.9817,10.0,53.1,11144222
LLOG,ioos:station:wmo:42940:1,2022-08-02T05:34:00Z,28.0786,-89.9817,10.0,52.9,11144222
LLOG,ioos:station:wmo:42940:1,2022-08-02T05:44:00Z,28.0786,-89.9817,10.0,52.3,11144222
LLOG,ioos:station:wmo:42940:1,2022-08-02T05:54:00Z,28.0786,-89.9817,10.0,52.1,11144222
LLOG,ioos:station:wmo:42940:1,2022-08-02T06:04:00Z,28.0786,-89.9817,10.0,52.4,11144222
LLOG,ioos:station:wmo:42940:1,2022-08-02T06:14:00Z,28.0786,-89.9817,10.0,52.3,11144222
LLOG,ioos:station:wmo:42940:1,2022-08-02T06:24:00Z,28.0786,-89.9817,10.0,52.3,11144222
LLOG,ioos:station:wmo:42940:1,2022-08-02T06:34:00Z,28.0786,-89.9817,10.0,51.7,11144222
LLOG,ioos:station:wmo:42940:1,2022-08-02T06:44:00Z,28.0786,-89.9817,10.0,51.2,11144222
LLOG,ioos:station:wmo:42940:1,2022-08-02T06:54:00Z,28.0786,-89.9817,10.0,49.0,11144222
LLOG,ioos:station:wmo:42940:1,2022-08-02T07:04:00Z,28.0786,-89.9817,10.0,46.7,11144222
LLOG,ioos:station:wmo:42940:1,2022-08-02T07:14:00Z,28.0786,-89.9817,10.0,48.0,11144222
LLOG,ioos:station:wmo:42940:1,2022-08-02T07:24:00Z,28.0786,-89.9817,10.0,49.5,11144222
LLOG,ioos:station:wmo:42940:1,2022-08-02T07:34:00Z,28.0786,-89.9817,10.0,49.2,11144222
LLOG,ioos:station:wmo:42940:1,2022-08-02T07:44:00Z,28.0786,-89.9817,10.0,47.7,11144222
LLOG,ioos:station:wmo:42940:1,2022-08-02T07:54:00Z,28.0786,-89.9817,10.0,38.9,11133222
LLOG,ioos:station:wmo:42940:1,2022-08-02T08:04:00Z,28.0786,-89.9817,10.0,50.4,11144222
LLOG,ioos:station:wmo:42940:1,2022-08-02T08:14:00Z,28.0786,-89.9817,10.0,53.1,11144222
LLOG,ioos:station:wmo:42940:1,2022-08-02T08:24:00Z,28.0786,-89.9817,10.0,52.5,11144222
LLOG,ioos:station:wmo:42940:1,2022-08-02T08:34:00Z,28.0786,-89.9817,10.0,53.1,11144222
LLOG,ioos:station:wmo:42940:1,2022-08-02T08:44:00Z,28.0786,-89.9817,10.0,53.0,11144222
LLOG,ioos:station:wmo:42940:1,2022-08-02T08:54:00Z,28.0786,-89.9817,10.0,52.3,11144222
LLOG,ioos:station:wmo:42940:1,2022-08-02T09:04:00Z,28.0786,-89.9817,10.0,53.4,11144222
LLOG,ioos:station:wmo:42940:1,2022-08-02T09:14:00Z,28.0786,-89.9817,10.0,51.7,11144222
LLOG,ioos:station:wmo:42940:1,2022-08-02T09:24:00Z,28.0786,-89.9817,10.0,51.4,11144222
LLOG,ioos:station:wmo:42940:1,2022-08-02T09:34:00Z,28.0786,-89.9817,10.0,52.1,11144222
LLOG,ioos:station:wmo:42940:1,2022-08-02T09:44:00Z,28.0786,-89.9817,10.0,50.2,11144222
LLOG,ioos:station:wmo:42940:1,2022-08-02T09:54:00Z,28.0786,-89.9817,10.0,50.5,11144222
LLOG,ioos:station:wmo:42940:1,2022-08-02T10:04:00Z,28.0786,-89.9817,10.0,52.0,11144222
LLOG,ioos:station:wmo:42940:1,2022-08-02T10:14:00Z,28.0786,-89.9817,10.0,50.9,11144222
LLOG,ioos:station:wmo:42940:1,2022-08-02T10:24:00Z,28.0786,-89.9817,10.0,53.4,11144222
LLOG,ioos:station:wmo:42940:1,2022-08-02T10:34:00Z,28.0786,-89.9817,10.0,53.5,11144222
LLOG,ioos:station:wmo:42940:1,2022-08-02T10:44:00Z,28.0786,-89.9817,10.0,53.5,11144222
LLOG,ioos:station:wmo:42940:1,2022-08-02T10:54:00Z,28.0786,-89.9817,10.0,52.4,11144222
LLOG,ioos:station:wmo:42940:1,2022-08-02T11:04:00Z,28.0786,-89.9817,10.0,53.4,11144222
LLOG,ioos:station:wmo:42940:1,2022-08-02T11:14:00Z,28.0786,-89.9817,10.0,53.6,11144222
LLOG,ioos:station:wmo:42940:1,2022-08-02T11:24:00Z,28.0786,-89.9817,10.0,53.5,11144222
LLOG,ioos:station:wmo:42940:1,2022-08-02T11:34:00Z,28.0786,-89.9817,10.0,53.3,11144222
LLOG,ioos:station:wmo:42940:1,2022-08-02T11:44:00Z,28.0786,-89.9817,10.0,52.8,11144222
LLOG,ioos:station:wmo:42940:1,2022-08-02T11:54:00Z,28.0786,-89.9817,10.0,52.7,11144222
LLOG,ioos:station:wmo:42940:1,2022-08-02T12:04:00Z,28.0786,-89.9817,10.0,54.6,11144222
LLOG,ioos:station:wmo:42940:1,2022-08-02T12:14:00Z,28.0786,-89.9817,10.0,55.1,11144222
LLOG,ioos:station:wmo:42940:1,2022-08-02T12:24:00Z,28.0786,-89.9817,10.0,50.8,11144222
LLOG,ioos:station:wmo:42940:1,2022-08-02T12:34:00Z,28.0786,-89.9817,10.0,49.3,11144222
LLOG,ioos:station:wmo:42940:1,2022-08-02T12:44:00Z,28.0786,-89.9817,10.0,52.5,11144222
LLOG,ioos:station:wmo:42940:1,2022-08-02T12:54:00Z,28.0786,-89.9817,10.0,51.4,11144222
LLOG,ioos:station:wmo:42940:1,2022-08-02T13:04:00Z,28.0786,-89.9817,10.0,51.0,11144222
LLOG,ioos:station:wmo:42940:1,2022-08-02T13:14:00Z,28.0786,-89.9817,10.0,52.8,11144222
LLOG,ioos:station:wmo:42940:1,2022-08-02T13:24:00Z,28.0786,-89.9817,10.0,51.7,11144222
LLOG,ioos:station:wmo:42940:1,2022-08-02T13:34:00Z,28.0786,-89.9817,10.0,51.7,11144222
LLOG,ioos:station:wmo:42940:1,2022-08-02T13:44:00Z,28.0786,-89.9817,10.0,50.9,11144222
LLOG,ioos:station:wmo:42940:1,2022-08-02T13:54:00Z,28.0786,-89.9817,10.0,50.8,11144222
LLOG,ioos:station:wmo:42940:1,2022-08-02T14:04:00Z,28.0786,-89.9817,10.0,50.8,11144222
LLOG,ioos:station:wmo:42940:1,2022-08-02T14:14:00Z,28.0786,-89.9817,10.0,46.4,11144222
LLOG,ioos:station:wmo:42940:1,2022-08-02T14:24:00Z,28.0786,-89.9817,10.0,49.7,11144222
LLOG,ioos:station:wmo:42940:1,2022-08-02T14:34:00Z,28.0786,-89.9817,10.0,51.0,11144222
LLOG,ioos:station:wmo:42940:1,2022-08-02T14:44:00Z,28.0786,-89.9817,10.0,52.6,11144222
LLOG,ioos:station:wmo:42940:1,2022-08-02T14:54:00Z,28.0786,-89.9817,10.0,50.9,11144222
LLOG,ioos:station:wmo:42940:1,2022-08-02T15:04:00Z,28.0786,-89.9817,10.0,50.5,11144222
LLOG,ioos:station:wmo:42940:1,2022-08-02T15:14:00Z,28.0786,-89.9817,10.0,52.5,11144222
LLOG,ioos:station:wmo:42940:1,2022-08-02T15:24:00Z,28.0786,-89.9817,10.0,53.3,11144222
LLOG,ioos:station:wmo:42940:1,2022-08-02T15:34:00Z,28.0786,-89.9817,10.0,51.5,11144222
LLOG,ioos:station:wmo:42940:1,2022-08-02T15:44:00Z,28.0786,-89.9817,10.0,52.5,11144222
LLOG,ioos:station:wmo:42940:1,2022-08-02T15:54:00Z,28.0786,-89.9817,10.0,51.0,11144222
LLOG,ioos:station:wmo:42940:1,2022-08-02T16:04:00Z,28.0786,-89.9817,10.0,51.3,11144222
LLOG,ioos:station:wmo:42940:1,2022-08-02T16:14:00Z,28.0786,-89.9817,10.0,53.7,11144222
LLOG,ioos:station:wmo:42940:1,2022-08-02T16:24:00Z,28.0786,-89.9817,10.0,54.7,11144222
LLOG,ioos:station:wmo:42940:1,2022-08-02T16:34:00Z,28.0786,-89.9817,10.0,51.9,11144222
LLOG,ioos:station:wmo:42940:1,2022-08-02T16:44:00Z,28.0786,-89.9817,10.0,52.9,11144222
LLOG,ioos:station:wmo:42940:1,2022-08-02T16:54:00Z,28.0786,-89.9817,10.0,52.8,11144222
LLOG,ioos:station:wmo:42940:1,2022-08-02T17:04:00Z,28.0786,-89.9817,10.0,53.6,11144222
LLOG,ioos:station:wmo:42940:1,2022-08-02T17:14:00Z,28.0786,-89.9817,10.0,54.5,11144222
LLOG,ioos:station:wmo:42940:1,2022-08-02T17:24:00Z,28.0786,-89.9817,10.0,53.6,11144222
LLOG,ioos:station:wmo:42940:1,2022-08-02T17:34:00Z,28.0786,-89.9817,10.0,53.6,11144222
LLOG,ioos:station:wmo:42940:1,2022-08-02T17:44:00Z,28.0786,-89.9817,10.0,54.2,11144222
LLOG,ioos:station:wmo:42940:1,2022-08-02T17:54:00Z,28.0786,-89.9817,10.0,50.9,11144222
LLOG,ioos:station:wmo:42940:1,2022-08-02T18:04:00Z,28.0786,-89.9817,10.0,53.0,11144222
LLOG,ioos:station:wmo:42940:1,2022-08-02T18:14:00Z,28.0786,-89.9817,10.0,51.2,11144222
LLOG,ioos:station:wmo:42940:1,2022-08-02T18:24:00Z,28.0786,-89.9817,10.0,54.7,11144222
LLOG,ioos:station:wmo:42940:1,2022-08-02T18:34:00Z,28.0786,-89.9817,10.0,53.8,11144222
LLOG,ioos:station:wmo:42940:1,2022-08-02T18:44:00Z,28.0786,-89.9817,10.0,53.8,11144222
LLOG,ioos:station:wmo:42940:1,2022-08-02T18:54:00Z,28.0786,-89.9817,10.0,54.7,11144222
LLOG,ioos:station:wmo:42940:1,2022-08-02T19:04:00Z,28.0786,-89.9817,10.0,54.0,11144222
LLOG,ioos:station:wmo:42940:1,2022-08-02T19:14:00Z,28.0786,-89.9817,10.0,53.0,11144222
LLOG,ioos:station:wmo:42940:1,2022-08-02T19:24:00Z,28.0786,-89.9817,10.0,50.9,11144222
LLOG,ioos:station:wmo:42940:1,2022-08-02T19:34:00Z,28.0786,-89.9817,10.0,51.0,11144222
LLOG,ioos:station:wmo:42940:1,2022-08-02T19:44:00Z,28.0786,-89.9817,10.0,50.8,11144222
LLOG,ioos:station:wmo:42940:1,2022-08-02T19:54:00Z,28.0786,-89.9817,10.0,50.0,11144222
LLOG,ioos:station:wmo:42940:1,2022-08-02T20:04:00Z,28.0786,-89.9817,10.0,52.2,11144222
LLOG,ioos:station:wmo:42940:1,2022-08-02T20:14:00Z,28.0786,-89.9817,10.0,50.9,11144222
LLOG,ioos:station:wmo:42940:1,2022-08-02T20:24:00Z,28.0786,-89.9817,10.0,49.8,11144222
LLOG,ioos:station:wmo:42940:1,2022-08-02T20:34:00Z,28.0786,-89.9817,10.0,56.6,11144222
LLOG,ioos:station:wmo:42940:1,2022-08-02T20:44:00Z,28.0786,-89.9817,10.0,56.9,11144222
LLOG,ioos:station:wmo:42940:1,2022-08-02T20:54:00Z,28.0786,-89.9817,10.0,56.5,11144222
LLOG,ioos:station:wmo:42940:1,2022-08-02T21:04:00Z,28.0786,-89.9817,10.0,56.9,11144222